STARLINK-1872 (46742 NORAD) Tracking and Keplerian Element Data

This shows tracking and keplerian element data for the satellite.

Feedback or suggestion? Click here.




ElementValue
Catalog46742
NameSTARLINK-1872
Epoch Orbit179
Epoch Day17.91667824
Epoch Year2021
RAAN106.8319
Inclination53.0514
Eccentricity0.0001434
Argument of Perigee85.4223
Mean Anonmoly78.5024
Mean Motion15.10532726
Decay Rate-0.01131112
L11 46742U 20074D 21017.91667824 -.01131112 00000-0 -73588-1 0 9994
L22 46742 53.0514 106.8319 0001434 85.4223 78.5024 15.10532726 1792

Live tracking and technical data element details for STARLINK-1872 (NORAD 46742). STARLINK-1872 can be tracked NOW for your location showing map with azimuth and elevation plus other details from your city location.

Track the satellite on the map from your city or location and see movement details for azimuth, elevation, latitude, longitude, range, height, and movement on the map or in text.







IsCatalogInMostPopularTable: catalog: 46742, numindb: 26
Update: records affected: 1



GetName: 46742 STARLINK-1872

Hit Count: updated at: Mon, 18 Jan 2021 17:10:22 GMT